CZ-6A DEB, 61076

Orbit data source: Space-Track

CZ-6A DEB, 61076 is space debris in LEO originally from a launch on Tue, 06 Aug 2024 UTC launched from the Taiyaun Space Center, China (TSC). Debris objects in space refer to the collection of defunct objects orbiting the Earth. Examples of debris include non-operational satellites, rocket bodies, and fragments generated from explosions, collisions, or faulty payload assembly.

Loading next visibility...
Identifier
61076, 2024-140MS
Orbit
LEO
Country
Flag of CNCN / PRC
Related business
Manufacturer
SAST
Mission
Spacecraft
Bus & Motor
Unknown
Mass
Unknown
Launch date (UTC)
2024-08-06 (2 years ago)
Launch vehicle
Unknown
Launch site
Taiyaun Space Center, China (TSC)
Object type
Payload
Rocket body
Debris
Shape & HBR
Unknown shape, 0.1 m
Radar Cross Section
Medium (>0.1 m² and <1 m²)

Expand to show TLE details & history
Last TLE update: 13 hours ago

TLE from 13 hours ago
0 CZ-6A DEB
1 61076U 24140MS  26171.30857089  .00000444  00000-0  20032-3 0  9990
2 61076  89.0156 275.6439 0049758 164.0190 196.2584 14.19818260 94593
Epoch: 2026-06-20T07:24Z
TLE epoch observation values (Epoch: 2026-06-20T07:24:20.524Z)
Latitude
-0.00006°
Longitude
-103.96667°
Altitude
863.454 km
Speed
7.403 km/s
True Right ascension
18h 22m 34s
True Declination
0° 00' 00"
Sunlit
Object was in full shadow at epoch
Visualization orbit readout
Latitude
Unknown
Longitude
Unknown
Altitude
Unknown
Speed
Unknown
Apparent Right ascension
Unknown
Apparent Declination
Unknown
Sunlit
N/A
Visualization observer readout
Local Sidereal Time
07:16:41
Azimuth
Unknown
Elevation
Unknown
Doppler factor
Unknown
Orbital elements
Apogee altitude
858.75 km
Perigee altitude
787.088 km
Semi-major axis
7,201.056 km
Eccentricity
0.00498
Inclination
89.0156°
RAAN
275.6439°
Arg. of periapsis
164.019°
True anomaly
196.09971°
Mean anomaly
196.2584°
Eccentric anomaly
196.17896°
Mean motion
3.5518 °/min
Orbital period
101.36 mins
BSTAR
0.00020032
Loading maneuver chart data...
Computing Atmospheric mass density...
Loading historical data...
Loading historical data...
Loading historical data...
Loading historical data...
Loading historical data...
Loading historical data...
Loading historical data...

Documentation

Showing up to 5 results
|